EW7659 Weather Reports


Display with metric or nautical units.
time (UTC)temp
F
wind
direction
speed
MPH
gust
MPH
rain 1hr
in
rain 24hr
in
rain mn
in
humidity
%
barometer
mb
20260906161205 98 172 0.0 0.0 0.00 0.00 0.00 41 1009.3
20260906160926 98 171 0.0 0.0 0.00 0.00 0.00 42 1009.3
20260906160651 97 171 0.0 0.0 0.00 0.00 0.00 43 1009.3
20260906155925 96 171 0.0 0.0 0.00 0.00 0.00 44 1009.3
20260906155205 96 171 0.0 2.0 0.00 0.00 0.00 43 1009.3
20260906154705 96 171 0.0 2.0 0.00 0.00 0.00 43 1009.3
20260906154430 95 170 0.0 0.0 0.00 0.00 0.00 43 1009.3
20260906153705 95 170 0.0 1.0 0.00 0.00 0.00 44 1009.2
20260906153204 95 169 0.0 1.0 0.00 0.00 0.00 45 1009.2
20260906152704 94 169 0.0 1.0 0.00 0.00 0.00 45 1009.2
20260906152419 94 168 0.0 1.0 0.00 0.00 0.00 47 1009.3
20260906151700 94 168 0.0 0.0 0.00 0.00 0.00 45 1009.2
20260906151200 94 168 0.0 0.0 0.00 0.00 0.00 46 1009.2
20260906150700 93 168 0.0 0.0 0.00 0.00 0.00 47 1009.2
20260906150200 93 168 0.0 0.0 0.00 0.00 0.00 47 1009.3
20260906145700 93 168 0.0 0.0 0.00 0.00 0.00 47 1009.3
20260906145200 92 168 0.0 0.0 0.00 0.00 0.00 49 1009.2
20260906144658 91 168 0.0 0.0 0.00 0.00 0.00 50 1009.2
20260906144156 91 168 0.0 0.0 0.00 0.00 0.00 52 1009.3
20260906143655 90 168 0.0 1.0 0.00 0.00 0.00 52 1009.3
20260906143156 90 168 0.0 1.0 0.00 0.00 0.00 53 1009.3
20260906142656 89 168 0.0 0.0 0.00 0.00 0.00 54 1009.4
20260906142157 88 168 0.0 0.0 0.00 0.00 0.00 56 1009.3
20260906141917 88 168 0.0 0.0 0.00 0.00 0.00 58 1009.2
20260906141155 87 168 0.0 0.0 0.00 0.00 0.00 60 1009.2
20260906140920 86 168 0.0 0.0 0.00 0.00 0.00 60 1009.2
20260906140148 85 168 0.0 0.0 0.00 0.00 0.00 64 1009.3
20260906135648 84 168 0.0 0.0 0.00 0.00 0.00 66 1009.1
20260906135148 83 168 0.0 0.0 0.00 0.00 0.00 68 1009.1
20260906134911 82 168 0.0 0.0 0.00 0.00 0.00 69 1009.0
20260906134146 82 168 0.0 0.0 0.00 0.00 0.00 70 1009.0
20260906133644 81 168 0.0 0.0 0.00 0.00 0.00 71 1009.0
20260906133142 81 168 0.0 0.0 0.00 0.00 0.00 72 1008.9
20260906132642 80 168 0.0 0.0 0.00 0.00 0.00 73 1008.9
20260906132141 80 168 0.0 0.0 0.00 0.00 0.00 74 1008.8
20260906131642 79 168 0.0 0.0 0.00 0.00 0.00 76 1008.8
20260906131143 78 168 0.0 0.0 0.00 0.00 0.00 77 1008.8
20260906130909 78 168 0.0 0.0 0.00 0.00 0.00 78 1008.8
20260906130410 77 168 0.0 0.0 0.00 0.00 0.00 80 1008.7
20260906125640 76 168 0.0 0.0 0.00 0.00 0.00 82 1008.5
20260906125145 76 168 0.0 0.0 0.00 0.00 0.00 83 1008.5
20260906124641 75 168 0.0 0.0 0.00 0.00 0.00 84 1008.4
20260906124140 75 168 0.0 0.0 0.00 0.00 0.00 84 1008.4
20260906123639 74 168 0.0 0.0 0.00 0.00 0.00 83 1008.4
20260906123140 74 168 0.0 0.0 0.00 0.00 0.00 82 1008.3
20260906122904 74 168 0.0 0.0 0.00 0.00 0.00 82 1008.2
20260906122135 75 168 0.0 0.0 0.00 0.00 0.00 82 1008.2
20260906121637 75 168 0.0 0.0 0.00 0.00 0.00 82 1008.1
20260906121135 75 168 0.0 0.0 0.00 0.00 0.00 82 1008.1
20260906120635 75 168 0.0 0.0 0.00 0.00 0.00 81 1008.1
20260906120136 75 168 0.0 0.0 0.00 0.00 0.00 81 1008.0
20260906115635 75 168 0.0 0.0 0.00 0.00 0.00 80 1008.0
20260906115136 75 168 0.0 0.0 0.00 0.00 0.00 80 1008.0
20260906114635 76 168 0.0 0.0 0.00 0.00 0.00 80 1008.0
20260906114137 76 168 0.0 0.0 0.00 0.00 0.00 80 1008.0
20260906113633 76 168 0.0 0.0 0.00 0.00 0.00 79 1008.0
20260906113132 76 168 0.0 0.0 0.00 0.00 0.00 79 1008.0
20260906112633 76 168 0.0 0.0 0.00 0.00 0.00 79 1007.8
20260906112132 76 168 0.0 0.0 0.00 0.00 0.00 79 1007.8
20260906111633 76 168 0.0 0.0 0.00 0.00 0.00 79 1007.9
20260906111132 76 168 0.0 0.0 0.00 0.00 0.00 78 1008.0
20260906110633 76 168 0.0 0.0 0.00 0.00 0.00 78 1008.0
20260906110354 76 168 0.0 0.0 0.00 0.00 0.00 78 1007.9
20260906105634 76 168 0.0 0.0 0.00 0.00 0.00 78 1007.9
20260906105133 76 168 0.0 0.0 0.00 0.00 0.00 77 1007.9
20260906104631 77 168 0.0 0.0 0.00 0.00 0.00 77 1007.9
20260906104124 77 168 0.0 0.0 0.00 0.00 0.00 77 1007.9
20260906103619 77 168 0.0 0.0 0.00 0.00 0.00 76 1007.9
20260906103113 77 168 0.0 0.0 0.00 0.00 0.00 76 1007.9
20260906102606 77 168 0.0 0.0 0.00 0.00 0.00 76 1007.9
20260906102108 77 168 0.0 0.0 0.00 0.00 0.00 76 1007.9
20260906101608 77 168 0.0 0.0 0.00 0.00 0.00 76 1007.8
20260906101108 77 168 0.0 0.0 0.00 0.00 0.00 76 1007.8
20260906101053 77 168 0.0 0.0 0.00 0.00 0.00 76 1007.8
20260906100329 77 168 0.0 0.0 0.00 0.00 0.00 76 1007.9
20260906095605 77 168 0.0 0.0 0.00 0.00 0.00 77 1007.9
20260906095105 77 168 0.0 0.0 0.00 0.00 0.00 77 1007.9
20260906095054 77 168 0.0 0.0 0.00 0.00 0.00 76 1007.9
20260906094105 77 168 0.0 0.0 0.00 0.00 0.00 76 1007.8
20260906093605 77 168 0.0 0.0 0.00 0.00 0.00 75 1007.6
20260906093105 77 168 0.0 0.0 0.00 0.00 0.00 75 1007.6
20260906092606 77 168 0.0 0.0 0.00 0.00 0.00 75 1007.5
20260906092107 78 168 0.0 0.0 0.00 0.00 0.00 75 1007.4
20260906092059 78 168 0.0 0.0 0.00 0.00 0.00 74 1007.4
20260906091106 78 168 0.0 0.0 0.00 0.00 0.00 74 1007.4
20260906090605 78 168 0.0 0.0 0.00 0.00 0.00 73 1007.4
20260906090322 78 168 0.0 0.0 0.00 0.00 0.00 72 1007.4
20260906085605 78 168 0.0 0.0 0.00 0.00 0.00 72 1007.5
20260906085105 78 168 0.0 0.0 0.00 0.00 0.00 72 1007.5
20260906084604 79 168 0.0 0.0 0.00 0.00 0.00 71 1007.4
20260906084105 79 168 0.0 1.0 0.00 0.00 0.00 71 1007.4
20260906083840 79 168 0.0 1.0 0.00 0.00 0.00 71 1007.5
20260906083105 79 168 0.0 0.0 0.00 0.00 0.00 71 1007.3
20260906082605 79 168 0.0 0.0 0.00 0.00 0.00 71 1007.3
20260906082105 78 168 0.0 0.0 0.00 0.00 0.00 72 1007.4
20260906081605 78 168 0.0 0.0 0.00 0.00 0.00 73 1007.3
20260906081105 78 168 0.0 6.0 0.00 0.00 0.00 74 1007.3
20260906080605 78 168 0.0 6.0 0.00 0.00 0.00 74 1007.2
20260906080106 77 168 0.0 0.0 0.00 0.00 0.00 74 1007.0
20260906075829 77 168 0.0 0.0 0.00 0.00 0.00 74 1006.9
20260906075105 78 168 0.0 0.0 0.00 0.00 0.00 74 1006.9
20260906074604 78 168 0.0 0.0 0.00 0.00 0.00 74 1007.0
20260906074105 78 168 0.0 0.0 0.00 0.00 0.00 73 1006.9
20260906073558 78 168 0.0 0.0 0.00 0.00 0.00 73 1006.9
20260906073053 78 168 0.0 0.0 0.00 0.00 0.00 73 1007.0
20260906072551 78 168 0.0 0.0 0.00 0.00 0.00 73 1007.0
20260906072051 78 168 0.0 0.0 0.00 0.00 0.00 72 1007.0
20260906071550 78 168 0.0 0.0 0.00 0.00 0.00 72 1007.0
20260906071048 78 168 0.0 0.0 0.00 0.00 0.00 72 1007.0
20260906070546 78 168 0.0 0.0 0.00 0.00 0.00 71 1007.0
20260906070045 78 168 0.0 0.0 0.00 0.00 0.00 71 1007.0
20260906065808 79 168 0.0 0.0 0.00 0.00 0.00 70 1007.2
20260906065043 79 168 0.0 0.0 0.00 0.00 0.00 71 1007.0
20260906064541 79 168 0.0 0.0 0.00 0.00 0.00 70 1007.0
20260906064040 79 168 0.0 0.0 0.00 0.00 0.00 70 1007.0
20260906063757 79 168 0.0 0.0 0.00 0.00 0.00 70 1007.0
20260906063036 79 168 0.0 0.0 0.00 0.00 0.00 70 1007.2
20260906062535 79 168 0.0 0.0 0.00 0.00 0.00 70 1007.0
20260906062034 79 168 0.0 0.0 0.00 0.00 0.00 70 1007.0
20260906061533 79 168 0.0 0.0 0.00 0.00 0.00 69 1007.0
20260906061033 79 168 0.0 0.0 0.00 0.00 0.00 68 1007.0
20260906060533 80 168 0.0 0.0 0.00 0.00 0.00 68 1007.0
20260906060033 80 168 0.0 0.0 0.00 0.00 0.00 68 1007.0
20260906055533 80 168 0.0 0.0 0.00 0.00 0.00 68 1007.2
20260906055033 80 168 0.0 0.0 0.00 0.00 0.00 67 1007.2
20260906054528 80 168 0.0 0.0 0.00 0.00 0.00 68 1007.2
20260906054019 80 168 0.0 0.0 0.00 0.00 0.00 67 1007.3
20260906053513 80 168 0.0 0.0 0.00 0.00 0.00 67 1007.3
20260906053007 80 168 0.0 0.0 0.00 0.00 0.00 67 1007.4
20260906052507 80 168 0.0 0.0 0.00 0.00 0.00 67 1007.3
20260906052007 81 168 0.0 0.0 0.00 0.00 0.00 67 1007.3
20260906051727 81 168 0.0 0.0 0.00 0.00 0.00 66 1007.3
20260906051005 81 168 0.0 0.0 0.00 0.00 0.00 66 1007.3
20260906050503 81 168 0.0 0.0 0.00 0.00 0.00 66 1007.3
20260906050226 81 168 0.0 0.0 0.00 0.00 0.00 66 1007.2
20260906045501 81 168 0.0 0.0 0.00 0.00 0.00 66 1007.2
20260906045000 82 168 0.0 0.0 0.00 0.00 0.00 65 1007.3
20260906044500 82 168 0.0 0.0 0.00 0.00 0.00 64 1007.0
20260906044001 82 168 0.0 0.0 0.00 0.00 0.00 64 1007.0
20260906043725 82 168 0.0 0.0 0.00 0.00 0.00 63 1007.0
20260906043001 83 168 0.0 0.0 0.00 0.00 0.00 62 1007.0
20260906042501 83 168 0.0 0.0 0.00 0.00 0.00 62 1007.0
20260906042223 83 168 0.0 0.0 0.00 0.00 0.00 61 1007.0
20260906041717 83 168 0.0 0.0 0.00 0.00 0.00 60 1007.0
20260906040955 83 168 0.0 0.0 0.00 0.00 0.00 59 1007.0
20260906040455 83 168 0.0 0.0 0.00 0.00 0.00 59 1007.0
20260906035955 84 168 0.0 0.0 0.00 0.00 0.00 58 1007.2
20260906035455 84 168 0.0 0.0 0.00 0.00 0.00 58 1007.3
20260906034954 84 168 0.0 0.0 0.00 0.00 0.00 57 1007.2
20260906034453 84 168 0.0 0.0 0.00 0.00 0.00 57 1007.0
20260906033953 85 168 0.0 0.0 0.00 0.00 0.00 57 1007.2
20260906033723 85 168 0.0 0.0 0.00 0.00 0.00 56 1007.0
20260906032953 85 168 0.0 0.0 0.00 0.00 0.00 56 1007.2
20260906032450 85 168 0.0 0.0 0.00 0.00 0.00 56 1007.0
20260906031949 85 168 0.0 0.0 0.00 0.00 0.00 55 1007.0
20260906031707 85 168 0.0 0.0 0.00 0.00 0.00 54 1006.9
20260906030949 86 168 0.0 0.0 0.00 0.00 0.00 53 1006.8
20260906030448 86 168 0.0 0.0 0.00 0.00 0.00 52 1006.8
20260906025949 86 168 0.0 0.0 0.00 0.00 0.00 52 1006.7
20260906025711 86 168 0.0 0.0 0.00 0.00 0.00 52 1006.6
20260906024949 87 168 0.0 0.0 0.00 0.00 0.00 52 1006.6
20260906024711 87 168 0.0 0.0 0.00 0.00 0.00 52 1006.5
20260906023949 87 168 0.0 0.0 0.00 0.00 0.00 51 1006.5
20260906023449 87 168 0.0 0.0 0.00 0.00 0.00 51 1006.3
20260906023209 87 168 0.0 0.0 0.00 0.00 0.00 51 1006.3
20260906022449 87 168 0.0 0.0 0.00 0.00 0.00 50 1006.2
20260906021949 88 168 0.0 0.0 0.00 0.00 0.00 50 1006.1
20260906021708 88 168 0.0 0.0 0.00 0.00 0.00 50 1006.1
20260906020949 88 168 0.0 0.0 0.00 0.00 0.00 49 1006.1
20260906020448 89 168 0.0 0.0 0.00 0.00 0.00 48 1006.1
20260906020209 89 168 0.0 0.0 0.00 0.00 0.00 48 1006.1
20260906015448 89 168 0.0 0.0 0.00 0.00 0.00 47 1006.0
20260906014952 90 168 0.0 0.0 0.00 0.00 0.00 47 1006.0
20260906014453 90 168 0.0 0.0 0.00 0.00 0.00 46 1005.9
20260906013951 91 168 0.0 0.0 0.00 0.00 0.00 45 1005.8
20260906013449 91 168 0.0 0.0 0.00 0.00 0.00 45 1005.7
20260906012948 91 168 0.0 0.0 0.00 0.00 0.00 45 1005.6
20260906012714 92 168 0.0 0.0 0.00 0.00 0.00 44 1005.5
20260906011946 92 168 0.0 0.0 0.00 0.00 0.00 44 1005.5
20260906011444 93 168 0.0 0.0 0.00 0.00 0.00 43 1005.5
20260906011205 93 168 0.0 0.0 0.00 0.00 0.00 42 1005.6
20260906010441 94 168 0.0 0.0 0.00 0.00 0.00 41 1005.6
20260906005938 94 168 0.0 0.0 0.00 0.00 0.00 40 1005.5
20260906005440 95 168 0.0 0.0 0.00 0.00 0.00 40 1005.5
20260906004934 96 168 0.0 0.0 0.00 0.00 0.00 39 1005.6
20260906004650 96 168 0.0 0.0 0.00 0.00 0.00 38 1005.6
20260906004156 97 168 0.0 0.0 0.00 0.00 0.00 37 1005.6
20260906003658 97 168 0.0 0.0 0.00 0.00 0.00 36 1005.7
20260906003156 98 168 0.0 0.0 0.00 0.00 0.00 36 1005.7
20260906002649 98 168 0.0 0.0 0.00 0.00 0.00 35 1005.7
20260906001918 98 168 0.0 0.0 0.00 0.00 0.00 34 1005.7
20260906001412 98 168 0.0 0.0 0.00 0.00 0.00 35 1005.7
20260906000908 98 168 0.0 0.0 0.00 0.00 0.00 34 1005.7
20260906000407 99 168 0.0 0.0 0.00 0.00 0.00 34 1005.7
20260905235906 99 168 0.0 0.0 0.00 0.00 0.00 34 1005.6
20260905235405 99 168 0.0 0.0 0.00 0.00 0.00 34 1005.6
20260905235123 100 168 0.0 0.0 0.00 0.00 0.00 34 1005.6
20260905234403 100 168 0.0 0.0 0.00 0.00 0.00 34 1005.5
20260905233902 100 168 0.0 0.0 0.00 0.00 0.00 34 1005.5
20260905233403 100 168 0.0 0.0 0.00 0.00 0.00 34 1005.5
20260905233133 100 168 0.0 0.0 0.00 0.00 0.00 34 1005.5
20260905232402 100 168 0.0 0.0 0.00 0.00 0.00 33 1005.4
20260905231901 101 169 0.0 0.0 0.00 0.00 0.00 33 1005.4
20260905231402 101 174 0.0 1.0 0.00 0.00 0.00 32 1005.3
20260905230901 101 173 0.0 1.0 0.00 0.00 0.00 32 1005.4
20260905230401 101 175 0.0 0.0 0.00 0.00 0.00 32 1005.4
20260905225901 101 175 0.0 0.0 0.00 0.00 0.00 31 1005.4
20260905225400 101 175 0.0 0.0 0.00 0.00 0.00 32 1005.4
20260905224901 102 175 0.0 0.0 0.00 0.00 0.00 32 1005.5
20260905224401 102 175 0.0 0.0 0.00 0.00 0.00 32 1005.4
20260905224125 102 176 0.0 3.0 0.00 0.00 0.00 32 1005.4
20260905223626 102 176 0.0 3.0 0.00 0.00 0.00 32 1005.5
20260905222902 102 177 0.0 2.0 0.00 0.00 0.00 32 1005.4
20260905222402 102 168 0.0 2.0 0.00 0.00 0.00 32 1005.4
20260905221901 102 172 0.0 0.0 0.00 0.00 0.00 32 1005.4
20260905221401 102 172 0.0 1.0 0.00 0.00 0.00 32 1005.5
20260905220901 102 169 0.0 4.0 0.00 0.00 0.00 32 1005.5
20260905220401 102 171 0.0 4.0 0.00 0.00 0.00 32 1005.5
20260905215901 101 171 0.0 2.0 0.00 0.00 0.00 32 1005.5
20260905215401 102 117 0.0 2.0 0.00 0.00 0.00 32 1005.6
20260905214902 102 179 0.0 0.0 0.00 0.00 0.00 33 1005.6
20260905214401 102 179 0.0 0.0 0.00 0.00 0.00 33 1005.7
20260905213901 102 175 0.0 0.0 0.00 0.00 0.00 33 1005.7
20260905213401 102 169 0.0 0.0 0.00 0.00 0.00 33 1005.7
20260905212901 102 168 0.0 1.0 0.00 0.00 0.00 33 1005.8
20260905212400 102 167 0.0 1.0 0.00 0.00 0.00 32 1005.9
20260905211901 102 166 0.0 1.0 0.00 0.00 0.00 33 1006.0
20260905211400 101 165 0.0 1.0 0.00 0.00 0.00 33 1006.0
20260905210902 101 166 0.0 9.0 0.00 0.00 0.00 33 1006.1
20260905210622 101 166 0.0 9.0 0.00 0.00 0.00 33 1006.1
20260905205901 101 171 0.0 6.0 0.00 0.00 0.00 34 1006.2
20260905205401 101 169 0.0 2.0 0.00 0.00 0.00 33 1006.3
20260905204901 101 168 0.0 8.0 0.00 0.00 0.00 34 1006.5
20260905204401 101 175 0.0 8.0 0.00 0.00 0.00 34 1006.5
20260905203901 102 167 0.0 6.0 0.00 0.00 0.00 34 1006.5
20260905203401 102 149 0.0 2.0 0.00 0.00 0.00 34 1006.6
20260905202901 102 197 0.0 2.0 0.00 0.00 0.00 34 1006.7
20260905202401 102 180 0.0 1.0 0.00 0.00 0.00 34 1006.7
20260905201902 102 182 0.0 1.0 0.00 0.00 0.00 33 1006.8
20260905201400 102 181 0.0 5.0 0.00 0.00 0.00 33 1007.0
20260905200901 102 178 0.0 5.0 0.00 0.00 0.00 33 1006.9
20260905200402 102 135 0.0 5.0 0.00 0.00 0.00 34 1007.0
20260905195902 102 185 0.0 2.0 0.00 0.00 0.00 34 1007.2
20260905195400 102 165 0.0 2.0 0.00 0.00 0.00 33 1007.3
20260905194854 102 172 0.0 7.0 0.00 0.00 0.00 32 1007.3
20260905194348 102 188 0.0 7.0 0.00 0.00 0.00 34 1007.3
20260905193844 102 166 0.0 1.0 0.00 0.00 0.00 34 1007.4
20260905193347 102 167 0.0 3.0 0.00 0.00 0.00 34 1007.5
20260905192844 101 171 0.0 5.0 0.00 0.00 0.00 34 1007.6
20260905192344 101 176 0.0 5.0 0.00 0.00 0.00 35 1007.6
20260905191844 101 182 0.0 7.0 0.00 0.00 0.00 34 1007.8
20260905191342 101 167 0.0 7.0 0.00 0.00 0.00 34 1007.9
20260905190840 101 168 0.0 3.0 0.00 0.00 0.00 34 1007.9
20260905190340 101 178 0.0 6.0 0.00 0.00 0.00 35 1008.0
20260905185841 101 167 0.0 6.0 0.00 0.00 0.00 35 1008.1
20260905185342 101 140 0.0 3.0 0.00 0.00 0.00 33 1008.1
20260905184836 101 156 0.0 1.0 0.00 0.00 0.00 35 1008.1
20260905184556 101 219 0.0 0.0 0.00 0.00 0.00 36 1008.2
20260905183833 100 223 0.0 1.0 0.00 0.00 0.00 36 1008.2
20260905183554 100 223 0.0 5.0 0.00 0.00 0.00 36 1008.2
20260905182829 100 172 0.0 5.0 0.00 0.00 0.00 35 1008.3
20260905182330 101 169 0.0 3.0 0.00 0.00 0.00 35 1008.3
20260905181829 100 175 0.0 5.0 0.00 0.00 0.00 36 1008.4
20260905181330 100 181 0.0 5.0 0.00 0.00 0.00 36 1008.4
20260905181055 100 167 0.0 1.0 0.00 0.00 0.00 37 1008.5
20260905180328 99 169 0.0 1.0 0.00 0.00 0.00 37 1008.5
20260905175822 99 167 0.0 3.0 0.00 0.00 0.00 38 1008.5
20260905175318 99 167 0.0 1.0 0.00 0.00 0.00 37 1008.7
20260905174818 99 172 0.0 1.0 0.00 0.00 0.00 37 1008.7
20260905174318 99 173 0.0 2.0 0.00 0.00 0.00 37 1008.7
20260905173818 100 173 0.0 2.0 0.00 0.00 0.00 37 1008.8
20260905173318 99 177 0.0 4.0 0.00 0.00 0.00 38 1008.8
20260905172818 99 177 0.0 7.0 0.00 0.00 0.00 39 1008.9
20260905172316 99 175 0.0 7.0 0.00 0.00 0.00 38 1008.9
20260905171817 99 167 0.0 3.0 0.00 0.00 0.00 39 1009.0
20260905171316 98 167 0.0 3.0 0.00 0.00 0.00 40 1009.0
20260905170816 98 167 0.0 2.0 0.00 0.00 0.00 39 1009.1
20260905170313 98 200 0.0 0.0 0.00 0.00 0.00 40 1009.1
20260905165814 98 200 0.0 1.0 0.00 0.00 0.00 40 1009.2
20260905165314 98 188 0.0 1.0 0.00 0.00 0.00 40 1009.3
20260905164814 98 181 0.0 1.0 0.00 0.00 0.00 40 1009.2
20260905164314 97 177 0.0 1.0 0.00 0.00 0.00 41 1009.3
20260905163814 97 178 0.0 5.0 0.00 0.00 0.00 41 1009.3
20260905163522 97 178 0.0 3.0 0.00 0.00 0.00 42 1009.3
20260905163511 97 177 0.0 5.0 0.00 0.00 0.00 42 1009.3
20260905162314 97 184 0.0 3.0 0.00 0.00 0.00 43 1009.4
20260905162038 96 173 0.0 1.0 0.00 0.00 0.00 44 1009.4